FW4606 Weather Reports


time (UTC)temp
C
wind
direction
speed
KPH
gust
KPH
rain 1hr
cm
rain 24hr
cm
rain mn
cm
humidity
%
barometer
mb
20260902174103 28 6 0.0 6.4 0.00 0.00 0.00 58 1012.9
20260902173604 28 12 0.0 6.4 0.00 0.00 0.00 60 1013.1
20260902172832 28 36 0.0 4.8 0.00 0.00 0.00 61 1013.2
20260902172332 28 204 0.0 4.8 0.00 0.00 0.00 60 1013.4
20260902172106 27 329 1.6 4.8 0.00 0.00 0.00 59 1013.4
20260902171328 28 104 0.0 4.8 0.00 0.00 0.00 58 1013.1
20260902170826 28 304 0.0 3.2 0.00 0.00 0.00 61 1013.1
20260902170818 27 335 0.0 4.8 0.00 0.00 0.00 62 1013.4
20260902165811 27 16 0.0 6.4 0.00 0.00 0.00 61 1013.4
20260902165309 27 335 1.6 6.4 0.00 0.00 0.00 63 1013.2
20260902164803 27 345 0.0 4.8 0.00 0.00 0.00 63 1013.1
20260902164537 27 108 0.0 8.0 0.00 0.00 0.00 65 1013.2
20260902163802 27 75 0.0 8.0 0.00 0.00 0.00 64 1013.2
20260902163259 27 95 0.0 6.4 0.00 0.00 0.00 65 1013.2
20260902162759 26 93 0.0 4.8 0.00 0.00 0.00 65 1013.4
20260902162257 26 109 0.0 4.8 0.00 0.00 0.00 68 1013.4
20260902162029 26 222 0.0 3.2 0.00 0.00 0.00 67 1013.6
20260902161258 26 58 0.0 1.6 0.00 0.00 0.00 68 1013.6
20260902160755 26 57 0.0 1.6 0.00 0.00 0.00 68 1013.4
20260902160254 26 108 0.0 1.6 0.00 0.00 0.00 69 1013.1
20260902155753 25 71 0.0 0.0 0.00 0.00 0.00 69 1013.1
20260902155252 25 60 0.0 1.6 0.00 0.00 0.00 70 1013.0
20260902154752 25 15 0.0 1.6 0.00 0.00 0.00 72 1013.0
20260902154250 25 17 0.0 1.6 0.00 0.00 0.00 71 1013.0
20260902153749 25 117 0.0 1.6 0.00 0.00 0.00 72 1013.0
20260902153250 25 142 0.0 0.0 0.00 0.00 0.00 73 1013.0
20260902152750 24 146 0.0 3.2 0.00 0.00 0.00 73 1013.0
20260902152516 24 203 0.0 4.8 0.00 0.00 0.00 72 1013.1
20260902151737 24 153 0.0 4.8 0.00 0.00 0.00 73 1013.1
20260902151503 24 239 0.0 4.8 0.00 0.00 0.00 76 1013.1
20260902150725 23 267 0.0 4.8 0.00 0.00 0.00 76 1013.1
20260902150219 23 228 0.0 1.6 0.00 0.00 0.00 75 1013.2
20260902145713 23 134 0.0 1.6 0.00 0.00 0.00 77 1013.4
20260902145208 23 233 0.0 1.6 0.00 0.00 0.00 77 1013.0
20260902144702 23 184 0.0 0.0 0.00 0.00 0.00 78 1012.7
20260902144156 22 136 0.0 1.6 0.00 0.00 0.00 80 1012.8
20260902143650 22 110 0.0 1.6 0.00 0.00 0.00 81 1012.9
20260902143415 21 156 0.0 1.6 0.00 0.00 0.00 83 1013.0
20260902142640 21 156 0.0 1.6 0.00 0.00 0.00 83 1013.2
20260902142132 21 120 0.0 1.6 0.00 0.00 0.00 84 1013.4
20260902141626 21 186 0.0 1.6 0.00 0.00 0.00 85 1013.4
20260902141120 21 352 0.0 1.6 0.00 0.00 0.00 85 1013.4
20260902140847 20 352 0.0 1.6 0.00 0.00 0.00 85 1013.5
20260902140108 20 352 0.0 1.6 0.00 0.00 0.00 85 1013.4
20260902135602 20 158 0.0 1.6 0.00 0.00 0.00 86 1013.5
20260902135056 20 145 0.0 1.6 0.00 0.00 0.00 86 1013.4
20260902134549 20 169 0.0 1.6 0.00 0.00 0.00 86 1013.4
20260902134044 20 169 0.0 3.2 0.00 0.00 0.00 86 1013.2
20260902133538 20 246 0.0 3.2 0.00 0.00 0.00 86 1013.2
20260902133032 20 242 0.0 3.2 0.00 0.00 0.00 86 1013.5
20260902132526 20 197 0.0 3.2 0.00 0.00 0.00 87 1013.4
20260902132251 20 169 0.0 3.2 0.00 0.00 0.00 87 1013.4
20260902131514 20 160 0.0 1.6 0.00 0.00 0.00 87 1013.4
20260902131009 20 120 0.0 1.6 0.00 0.00 0.00 88 1013.5
20260902131004 20 120 0.0 1.6 0.00 0.00 0.00 88 1013.5
20260902125956 19 120 0.0 1.6 0.00 0.00 0.00 89 1013.4
20260902125450 19 164 0.0 0.0 0.00 0.00 0.00 90 1013.5
20260902125215 19 163 0.0 0.0 0.00 0.00 0.00 90 1013.5
20260902124438 19 164 0.0 0.0 0.00 0.00 0.00 90 1013.5
20260902124202 19 164 0.0 0.0 0.00 0.00 0.00 90 1013.6
20260902123425 19 163 0.0 0.0 0.00 0.00 0.00 90 1013.8
20260902122920 19 163 0.0 0.0 0.00 0.00 0.00 90 1013.6
20260902122413 19 163 0.0 0.0 0.00 0.00 0.00 90 1013.4
20260902121908 19 164 0.0 0.0 0.00 0.00 0.00 90 1013.5
20260902121402 18 164 0.0 0.0 0.00 0.00 0.00 90 1013.4
20260902120856 19 163 0.0 0.0 0.00 0.00 0.00 90 1013.5
20260902120350 19 163 0.0 0.0 0.00 0.00 0.00 90 1013.5
20260902115844 18 163 0.0 0.0 0.00 0.00 0.00 90 1013.6
20260902115338 18 163 0.0 0.0 0.00 0.00 0.00 90 1013.9
20260902114832 18 163 0.0 0.0 0.00 0.00 0.00 90 1013.8
20260902114326 18 163 0.0 0.0 0.00 0.00 0.00 90 1014.0
20260902113820 18 164 0.0 0.0 0.00 0.00 0.00 90 1013.9
20260902113313 18 163 0.0 0.0 0.00 0.00 0.00 90 1013.7
20260902112808 18 164 0.0 0.0 0.00 0.00 0.00 90 1013.7
20260902112305 19 163 0.0 0.0 0.00 0.00 0.00 90 1013.6
20260902111756 19 163 0.0 0.0 0.00 0.00 0.00 90 1013.5
20260902111249 19 163 0.0 0.0 0.00 0.00 0.00 90 1013.7
20260902111015 19 163 0.0 0.0 0.00 0.00 0.00 90 1013.6
20260902110238 19 163 0.0 0.0 0.00 0.00 0.00 90 1013.5
20260902110006 18 163 0.0 0.0 0.00 0.00 0.00 90 1013.5
20260902105226 18 164 0.0 0.0 0.00 0.00 0.00 90 1013.6
20260902104719 18 163 0.0 0.0 0.00 0.00 0.00 90 1013.6
20260902104214 18 163 0.0 0.0 0.00 0.00 0.00 90 1013.6
20260902103708 18 164 0.0 1.6 0.00 0.00 0.00 91 1013.8
20260902103202 18 164 0.0 1.6 0.00 0.00 0.00 91 1013.7
20260902102655 18 163 0.0 0.0 0.00 0.00 0.00 91 1013.6
20260902102150 18 163 0.0 0.0 0.00 0.00 0.00 91 1013.7
20260902101644 18 163 0.0 1.6 0.00 0.00 0.00 90 1013.6
20260902101137 18 163 0.0 1.6 0.00 0.00 0.00 90 1013.5
20260902100632 19 312 0.0 0.0 0.00 0.00 0.00 90 1012.9
20260902100358 19 314 0.0 0.0 0.00 0.00 0.00 90 1012.8
20260902095622 19 314 0.0 0.0 0.00 0.00 0.00 90 1012.7
20260902095344 19 313 0.0 0.0 0.00 0.00 0.00 89 1012.6
20260902094607 19 314 0.0 0.0 0.00 0.00 0.00 89 1012.6
20260902094102 19 314 0.0 0.0 0.00 0.00 0.00 89 1012.3
20260902093556 20 314 0.0 0.0 0.00 0.00 0.00 88 1012.2
20260902092544 20 314 0.0 0.0 0.00 0.00 0.00 88 1011.9
20260902092037 20 314 0.0 1.6 0.00 0.00 0.00 88 1012.2
20260902091532 20 314 0.0 1.6 0.00 0.00 0.00 88 1012.2
20260902091026 19 314 0.0 1.6 0.00 0.00 0.00 89 1012.3
20260902090750 19 310 0.0 1.6 0.00 0.00 0.00 89 1012.4
20260902090014 19 310 0.0 1.6 0.00 0.00 0.00 89 1012.2
20260902085508 19 311 0.0 1.6 0.00 0.00 0.00 90 1012.3
20260902085234 19 239 0.0 0.0 0.00 0.00 0.00 90 1012.7
20260902084957 19 239 0.0 0.0 0.00 0.00 0.00 90 1012.9
20260902083950 19 239 0.0 0.0 0.00 0.00 0.00 90 1012.8
20260902083443 19 239 0.0 0.0 0.00 0.00 0.00 90 1012.8
20260902082937 19 239 0.0 0.0 0.00 0.00 0.00 90 1012.8
20260902082432 19 239 0.0 0.0 0.00 0.00 0.00 89 1012.8
20260902082156 19 239 0.0 0.0 0.00 0.00 0.00 89 1013.0
20260902081420 19 239 0.0 0.0 0.00 0.00 0.00 89 1013.2
20260902080914 19 239 0.0 0.0 0.00 0.00 0.00 89 1013.2
20260902080411 19 239 0.0 0.0 0.00 0.00 0.00 89 1013.1
20260902080405 19 239 0.0 0.0 0.00 0.00 0.00 89 1013.0
20260902075627 19 239 0.0 1.6 0.00 0.00 0.00 89 1012.8
20260902075120 19 239 0.0 1.6 0.00 0.00 0.00 89 1013.2
20260902074344 19 152 0.0 0.0 0.00 0.00 0.00 90 1013.2
20260902073838 19 152 0.0 0.0 0.00 0.00 0.00 89 1013.2
20260902073332 19 162 0.0 0.0 0.00 0.00 0.00 89 1013.1
20260902072826 19 162 0.0 0.0 0.00 0.00 0.00 89 1013.1
20260902072320 20 163 0.0 0.0 0.00 0.00 0.00 88 1013.4
20260902071813 20 144 0.0 0.0 0.00 0.00 0.00 88 1013.4
20260902071538 20 144 0.0 1.6 0.00 0.00 0.00 88 1013.5
20260902070802 20 144 0.0 1.6 0.00 0.00 0.00 88 1013.6
20260902070527 20 143 0.0 0.0 0.00 0.00 0.00 88 1013.7
20260902070021 20 144 0.0 0.0 0.00 0.00 0.00 87 1013.8
20260902065245 19 143 0.0 0.0 0.00 0.00 0.00 87 1013.9
20260902064738 19 144 0.0 0.0 0.00 0.00 0.00 87 1014.0
20260902064231 19 144 0.0 0.0 0.00 0.00 0.00 87 1014.2
20260902063726 19 144 0.0 0.0 0.00 0.00 0.00 88 1014.1
20260902063219 18 144 0.0 0.0 0.00 0.00 0.00 88 1014.0
20260902062713 18 144 0.0 0.0 0.00 0.00 0.00 88 1014.0
20260902062207 18 143 0.0 0.0 0.00 0.00 0.00 87 1013.8
20260902061702 19 144 0.0 0.0 0.00 0.00 0.00 87 1013.6
20260902061156 19 144 0.0 0.0 0.00 0.00 0.00 86 1013.2
20260902060650 19 144 0.0 0.0 0.00 0.00 0.00 86 1012.9
20260902060143 19 143 0.0 0.0 0.00 0.00 0.00 85 1012.6
20260902055915 19 143 0.0 0.0 0.00 0.00 0.00 86 1012.7
20260902055141 19 143 0.0 0.0 0.00 0.00 0.00 86 1012.9
20260902054640 19 144 0.0 0.0 0.00 0.00 0.00 86 1013.2
20260902054140 19 144 0.0 0.0 0.00 0.00 0.00 86 1013.5
20260902053910 19 144 0.0 0.0 0.00 0.00 0.00 87 1013.5
20260902053138 19 143 0.0 0.0 0.00 0.00 0.00 86 1013.7
20260902052636 19 143 0.0 0.0 0.00 0.00 0.00 87 1013.7
20260902052132 19 144 0.0 0.0 0.00 0.00 0.00 87 1013.9
20260902051635 19 144 0.0 0.0 0.00 0.00 0.00 86 1014.0
20260902051134 19 144 0.0 0.0 0.00 0.00 0.00 86 1014.0
20260902050631 19 144 0.0 0.0 0.00 0.00 0.00 86 1013.9
20260902050130 19 144 0.0 0.0 0.00 0.00 0.00 86 1013.8
20260902045627 19 143 0.0 0.0 0.00 0.00 0.00 85 1013.7
20260902045125 19 143 0.0 0.0 0.00 0.00 0.00 85 1013.5
20260902044624 19 144 0.0 0.0 0.00 0.00 0.00 86 1013.2
20260902044125 19 144 0.0 0.0 0.00 0.00 0.00 87 1013.4
20260902043623 19 143 0.0 0.0 0.00 0.00 0.00 87 1013.5
20260902043119 19 143 0.0 0.0 0.00 0.00 0.00 87 1013.4
20260902042615 19 143 0.0 0.0 0.00 0.00 0.00 86 1013.2
20260902042121 19 143 0.0 0.0 0.00 0.00 0.00 85 1012.8
20260902042117 19 144 0.0 0.0 0.00 0.00 0.00 86 1013.0
20260902041115 20 144 0.0 0.0 0.00 0.00 0.00 84 1012.8
20260902040614 20 143 0.0 0.0 0.00 0.00 0.00 84 1013.1
20260902040113 20 143 0.0 0.0 0.00 0.00 0.00 84 1013.2
20260902035614 20 144 0.0 0.0 0.00 0.00 0.00 85 1013.2
20260902035114 20 143 0.0 0.0 0.00 0.00 0.00 85 1013.4
20260902034615 20 144 0.0 0.0 0.00 0.00 0.00 84 1013.2
20260902034110 20 144 0.0 0.0 0.00 0.00 0.00 83 1013.4
20260902033609 20 144 0.0 0.0 0.00 0.00 0.00 83 1013.5
20260902033109 20 143 0.0 0.0 0.00 0.00 0.00 83 1013.8
20260902032611 20 143 0.0 0.0 0.00 0.00 0.00 83 1013.9
20260902032110 20 144 0.0 0.0 0.00 0.00 0.00 84 1014.0
20260902031610 20 143 0.0 0.0 0.00 0.00 0.00 82 1013.9
20260902031109 20 143 0.0 0.0 0.00 0.00 0.00 82 1013.8
20260902030609 20 144 0.0 0.0 0.00 0.00 0.00 81 1013.6
20260902030342 20 144 0.0 0.0 0.00 0.00 0.00 81 1013.7
20260902025836 20 144 0.0 0.0 0.00 0.00 0.00 79 1013.7
20260902025107 20 144 0.0 0.0 0.00 0.00 0.00 79 1013.6
20260902024606 21 144 0.0 0.0 0.00 0.00 0.00 78 1013.5
20260902024106 21 144 0.0 0.0 0.00 0.00 0.00 78 1013.2
20260902023606 21 143 0.0 0.0 0.00 0.00 0.00 77 1013.4
20260902023336 21 144 0.0 0.0 0.00 0.00 0.00 75 1013.4
20260902022605 21 144 0.0 0.0 0.00 0.00 0.00 75 1013.5
20260902022105 21 143 0.0 0.0 0.00 0.00 0.00 74 1013.5
20260902021606 21 143 0.0 0.0 0.00 0.00 0.00 74 1013.5
20260902021101 21 143 0.0 0.0 0.00 0.00 0.00 74 1013.5
20260902020833 22 144 0.0 0.0 0.00 0.00 0.00 73 1013.5
20260902015602 22 144 0.0 0.0 0.00 0.00 0.00 73 1013.2
20260902015335 22 143 0.0 0.0 0.00 0.00 0.00 71 1013.4
20260902014601 22 144 0.0 0.0 0.00 0.00 0.00 69 1013.2
20260902014102 23 144 0.0 0.0 0.00 0.00 0.00 69 1013.2
20260902013832 23 144 0.0 0.0 0.00 0.00 0.00 68 1013.2
20260902013103 23 144 0.0 0.0 0.00 0.00 0.00 67 1013.1
20260902012559 23 144 0.0 0.0 0.00 0.00 0.00 66 1013.0
20260902012329 23 144 0.0 0.0 0.00 0.00 0.00 66 1012.9
20260902011559 23 144 0.0 0.0 0.00 0.00 0.00 65 1012.9
20260902011059 24 144 0.0 0.0 0.00 0.00 0.00 67 1012.9
20260902010558 24 144 0.0 0.0 0.00 0.00 0.00 64 1012.7
20260902010101 24 144 0.0 0.0 0.00 0.00 0.00 63 1012.6
20260902005600 24 143 0.0 0.0 0.00 0.00 0.00 64 1012.7
20260902005100 24 143 0.0 0.0 0.00 0.00 0.00 66 1012.8
20260902004602 25 143 0.0 0.0 0.00 0.00 0.00 61 1013.0
20260902004056 25 143 0.0 0.0 0.00 0.00 0.00 61 1012.9
20260902003556 25 143 0.0 0.0 0.00 0.00 0.00 61 1012.9
20260902003057 25 143 0.0 0.0 0.00 0.00 0.00 61 1013.0
20260902002555 25 143 0.0 0.0 0.00 0.00 0.00 60 1012.9
20260902002054 25 144 0.0 0.0 0.00 0.00 0.00 60 1013.0
20260902001555 25 143 0.0 0.0 0.00 0.00 0.00 58 1013.0
20260902001055 26 144 0.0 0.0 0.00 0.00 0.00 56 1013.1
20260902000553 26 143 0.0 0.0 0.00 0.00 0.00 56 1013.2
20260902000055 26 143 0.0 0.0 0.00 0.00 0.00 55 1013.0
20260901235551 27 143 0.0 0.0 0.00 0.00 0.00 54 1012.9
20260901235051 27 143 0.0 0.0 0.00 0.00 0.00 52 1013.1
20260901234550 27 143 0.0 0.0 0.00 0.00 0.00 52 1013.2
20260901234047 28 143 0.0 1.6 0.00 0.00 0.00 52 1013.2
20260901233551 28 143 0.0 1.6 0.00 0.00 0.00 51 1013.2
20260901233320 28 134 0.0 3.2 0.00 0.00 0.00 48 1013.1
20260901232549 28 140 0.0 3.2 0.00 0.00 0.00 48 1013.0
20260901232046 28 149 0.0 1.6 0.00 0.00 0.00 48 1013.0
20260901231545 29 158 0.0 3.2 0.00 0.00 0.00 46 1013.0
20260901231043 29 159 0.0 4.8 0.00 0.00 0.00 47 1013.1
20260901230545 29 146 0.0 4.8 0.00 0.00 0.00 48 1013.0
20260901230043 29 125 1.6 4.8 0.00 0.00 0.00 46 1013.1
20260901225540 29 148 1.6 4.8 0.00 0.00 0.00 45 1013.2
20260901225306 29 132 1.6 3.2 0.00 0.00 0.00 45 1013.2
20260901224538 29 132 0.0 3.2 0.00 0.00 0.00 50 1013.2
20260901224029 28 157 0.0 1.6 0.00 0.00 0.00 50 1013.1
20260901223528 28 136 0.0 1.6 0.00 0.00 0.00 48 1013.1
20260901223027 28 143 0.0 3.2 0.00 0.00 0.00 47 1013.0
20260901222527 28 140 1.6 3.2 0.00 0.00 0.00 45 1013.1
20260901222026 29 154 0.0 3.2 0.00 0.00 0.00 43 1013.0
20260901221525 29 228 1.6 8.0 0.00 0.00 0.00 42 1013.0
20260901221021 29 226 1.6 8.0 0.00 0.00 0.00 41 1013.0
20260901220522 29 218 1.6 6.4 0.00 0.00 0.00 43 1013.1
20260901220020 29 238 1.6 4.8 0.00 0.00 0.00 42 1013.0
20260901215521 29 169 1.6 4.8 0.00 0.00 0.00 44 1013.0
20260901215019 30 214 0.0 3.2 0.00 0.00 0.00 42 1013.0
20260901214518 30 190 1.6 4.8 0.00 0.00 0.00 41 1012.9
20260901214248 30 149 3.2 4.8 0.00 0.00 0.00 41 1012.9
20260901213748 30 156 1.6 4.8 0.00 0.00 0.00 40 1012.8
20260901213016 30 167 1.6 4.8 0.00 0.00 0.00 40 1012.7
20260901212515 30 222 1.6 3.2 0.00 0.00 0.00 38 1012.7
20260901212019 30 170 1.6 3.2 0.00 0.00 0.00 39 1012.8
20260901211512 30 154 1.6 3.2 0.00 0.00 0.00 40 1012.7
20260901211005 30 146 0.0 3.2 0.00 0.00 0.00 38 1012.6
20260901210457 30 133 0.0 4.8 0.00 0.00 0.00 38 1012.7
20260901205957 31 214 1.6 4.8 0.00 0.00 0.00 36 1012.8
20260901205456 31 208 1.6 4.8 0.00 0.00 0.00 36 1012.8
20260901205225 31 136 1.6 4.8 0.00 0.00 0.00 35 1012.8
20260901204452 31 159 1.6 8.0 0.00 0.00 0.00 34 1013.0
20260901203950 31 134 3.2 8.0 0.00 0.00 0.00 34 1013.1
20260901203448 32 112 3.2 6.4 0.00 0.00 0.00 33 1013.1
20260901203220 32 273 1.6 6.4 0.00 0.00 0.00 33 1013.1
20260901202721 32 217 1.6 6.4 0.00 0.00 0.00 32 1013.1
20260901202619 32 148 1.6 6.4 0.00 0.00 0.00 32 1013.2
20260901201449 32 159 1.6 6.4 0.00 0.00 0.00 33 1013.2
20260901200945 32 174 1.6 8.0 0.00 0.00 0.00 35 1013.2
20260901200447 32 201 1.6 8.0 0.00 0.00 0.00 32 1013.2
20260901195946 32 120 1.6 8.0 0.00 0.00 0.00 35 1013.2
20260901195446 31 107 3.2 6.4 0.00 0.00 0.00 34 1013.4
20260901194950 31 212 1.6 4.8 0.00 0.00 0.00 37 1013.5
20260901194946 31 196 1.6 6.4 0.00 0.00 0.00 35 1013.4
20260901194219 31 201 1.6 6.4 0.00 0.00 0.00 38 1013.5
20260901193446 31 159 1.6 6.4 0.00 0.00 0.00 38 1013.6
20260901192940 31 221 1.6 6.4 0.00 0.00 0.00 38 1013.5
20260901192434 32 176 1.6 8.0 0.00 0.00 0.00 37 1013.5
20260901191928 32 257 1.6 8.0 0.00 0.00 0.00 38 1013.5
20260901191421 31 212 0.0 4.8 0.00 0.00 0.00 41 1013.5
20260901190923 31 42 0.0 1.6 0.00 0.00 0.00 41 1013.6
20260901190422 31 102 0.0 1.6 0.00 0.00 0.00 44 1013.7
20260901185924 30 45 0.0 1.6 0.00 0.00 0.00 39 1013.7
20260901185424 30 54 0.0 3.2 0.00 0.00 0.00 41 1013.8
20260901184923 30 194 0.0 3.2 0.00 0.00 0.00 42 1013.8
20260901184421 30 156 0.0 3.2 0.00 0.00 0.00 45 1013.7
20260901183918 30 162 0.0 3.2 0.00 0.00 0.00 43 1013.8
20260901183417 30 141 0.0 4.8 0.00 0.00 0.00 44 1013.9
20260901182917 30 136 0.0 4.8 0.00 0.00 0.00 40 1014.0
20260901182418 30 169 0.0 3.2 0.00 0.00 0.00 43 1014.0
20260901181916 30 175 1.6 6.4 0.00 0.00 0.00 40 1014.1
20260901181645 30 166 1.6 6.4 0.00 0.00 0.00 40 1014.2
20260901180913 31 193 1.6 6.4 0.00 0.00 0.00 40 1014.2
20260901180412 30 215 1.6 6.4 0.00 0.00 0.00 40 1014.3
20260901180144 30 113 1.6 6.4 0.00 0.00 0.00 44 1014.3
20260901175411 30 162 1.6 6.4 0.00 0.00 0.00 41 1014.3
20260901175142 30 256 1.6 6.4 0.00 0.00 0.00 45 1014.5
20260901174406 30 115 1.6 4.8 0.00 0.00 0.00 43 1014.6